STARLINK-1443 (45660 NORAD) Tracking and Keplerian Element Data

This shows tracking and keplerian element data for the satellite.

Feedback or suggestion? Click here.




ElementValue
Catalog45660
NameSTARLINK-1443
Epoch Orbit656
Epoch Day192.25001157
Epoch Year2020
RAAN353.3594
Inclination53.0022
Eccentricity0.0001202
Argument of Perigee93.5448
Mean Anonmoly202.612
Mean Motion15.3297438
Decay Rate-0.01073478
L11 45660U 20035D 20192.25001157 -.01073478 00000-0 -36240-1 0 9994
L22 45660 53.0022 353.3594 0001202 93.5448 202.6120 15.32974380 6567

Live tracking and technical data element details for STARLINK-1443 (NORAD 45660). STARLINK-1443 can be tracked NOW for your location showing map with azimuth and elevation plus other details from your city location.

Track the satellite on the map from your city or location and see movement details for azimuth, elevation, latitude, longitude, range, height, and movement on the map or in text.







IsCatalogInMostPopularTable: catalog: 45660, numindb: 2
Update: records affected: 1



GetName: 45660 STARLINK-1443

Hit Count: updated at: Fri, 10 Jul 2020 15:55:26 GMT